Mattoon, IL

4:35 AM CST on December 13, 2019 (GMT -0600)
Coles County Memorial

Weather History for KMTO - November, 2019

Change the Weather History Date:

Saturday, November 16, 2019

  Actual Average Record
Temperature  
Mean Temperature 34 °F 43 °F  
Max Temperature 44 °F 51 °F 77 °F (1971)
Min Temperature 24 °F 35 °F 9 °F (1959)
Degree Days  
Heating Degree Days 31 22  
Month to date heating degree days 488 299  
Since 1 July heating degree days 821 703  
Cooling Degree Days 0 0  
Month to date cooling degree days 0 0  
Year to date cooling degree days 1256 1057  
Moisture  
Dew Point 26 °F    
Average Humidity 75    
Maximum Humidity 92    
Minimum Humidity 57    
Precipitation  
Precipitation 0.00 in 0.12 in 1.60 in (1958)
Month to date precipitation T 1.88  
Year to date precipitation 32.15 33.68  
Sea Level Pressure  
Sea Level Pressure 30.30 in    
Wind  
Wind Speed 5 mph (ENE)    
Max Wind Speed 9 mph    
Max Gust Speed 14 mph    
Visibility 6 miles    
Events      
T = Trace of Precipitation, MM = Missing Value Source: NWS Daily Summary

Daily Weather History Graph

Daily Weather History Graph

Search for Another Location

Airport or City:

Astronomy

Nov. 16, 2019 Rise Set
Actual Time 6:37 AM CST 4:37 PM CST
Civil Twilight 6:09 AM CST 5:06 PM CST
Nautical Twilight 5:36 AM CST 5:38 PM CST
Astronomical Twilight 5:04 AM CST 6:10 PM CST
Moon 8:10 PM CST (11/16) 10:31 AM CST (11/16)
Length of Visible Light 10h 57m
Length of Day
9h 59m
Waning Gibbous, 82% of the Moon is Illuminated
Nov 16
Waning Gibbous
Nov 19
Last Quarter
Nov 26
New
Dec 4
First Quarter
Dec 11
Full

Hourly Weather History & Observations

Time (CST) Temp. Windchill Dew Point Humidity Pressure Visibility Wind Dir Wind Speed Gust Speed Precip Events Conditions
1:53 AM 28.0 °F 20.8 °F 24.1 °F 85% 30.37 in 7.0 mi East 6.9 mph - N/A   Clear
2:53 AM 27.0 °F 19.5 °F 24.1 °F 89% 30.37 in 6.0 mi ENE 6.9 mph - N/A   Clear
3:53 AM 28.0 °F 24.2 °F 24.1 °F 85% 30.37 in 5.0 mi NE 3.5 mph - N/A   Clear
4:53 AM 26.1 °F 21.9 °F 24.1 °F 92% 30.38 in 4.0 mi NNE 3.5 mph - N/A   Clear
6:42 AM 24.1 °F 19.7 °F 21.9 °F 91% 30.36 in 2.0 mi North 3.5 mph - N/A   Clear
6:53 AM 24.1 °F 19.7 °F 21.9 °F 91% 30.39 in 2.0 mi NNE 3.5 mph - N/A   Clear
7:04 AM 25.0 °F 20.7 °F 21.9 °F 88% 30.36 in 1.8 mi NNE 3.5 mph - N/A   Clear
7:53 AM 28.0 °F 24.2 °F 25.0 °F 88% 30.40 in 2.0 mi NE 3.5 mph - N/A   Clear
8:37 AM 30.9 °F 24.3 °F 28.0 °F 89% 30.37 in 3.0 mi ENE 6.9 mph - N/A   Clear
8:53 AM 33.1 °F 26.1 °F 28.0 °F 82% 30.39 in 3.0 mi ENE 8.1 mph - N/A   Haze
9:53 AM 36.0 °F 30.3 °F 28.9 °F 76% 30.38 in 5.0 mi East 6.9 mph - N/A   Haze
10:53 AM 37.9 °F 32.7 °F 28.9 °F 70% 30.36 in 5.0 mi NE 6.9 mph - N/A   Haze
11:53 AM 39.9 °F 35.8 °F 28.0 °F 63% 30.32 in 7.0 mi East 5.8 mph - N/A   Clear
12:53 PM 41.0 °F 35.8 °F 28.9 °F 62% 30.30 in 7.0 mi ESE 8.1 mph - N/A   Clear
1:53 PM 43.0 °F 40.3 °F 28.9 °F 58% 30.27 in 7.0 mi Variable 4.6 mph - N/A   Clear
2:53 PM 43.0 °F 39.5 °F 30.0 °F 60% 30.26 in 8.0 mi NNE 5.8 mph - N/A   Clear
3:53 PM 42.1 °F 38.4 °F 30.9 °F 65% 30.25 in 7.0 mi ENE 5.8 mph - N/A   Clear
4:53 PM 37.0 °F 31.6 °F 28.9 °F 73% 30.24 in 8.0 mi ENE 6.9 mph - N/A   Clear
5:53 PM 35.1 °F - 28.0 °F 76% 30.24 in 9.0 mi Calm Calm - N/A   Clear
6:53 PM 34.0 °F 29.8 °F 27.0 °F 75% 30.23 in 9.0 mi ENE 4.6 mph - N/A   Clear
7:53 PM 33.1 °F 27.7 °F 26.1 °F 75% 30.22 in 9.0 mi East 5.8 mph - N/A   Clear
8:53 PM 32.0 °F - 26.1 °F 79% 30.21 in 8.0 mi Calm Calm - N/A   Clear
9:53 PM 30.9 °F 25.2 °F 25.0 °F 79% 30.20 in 9.0 mi ESE 5.8 mph - N/A   Clear
10:53 PM 33.1 °F 30.0 °F 26.1 °F 75% 30.19 in 9.0 mi ESE 3.5 mph - N/A   Clear
11:53 PM 32.0 °F 26.4 °F 26.1 °F 79% 30.17 in 9.0 mi East 5.8 mph - N/A   Clear